Météo par heure à Dzialowo

Ce jour, 22 Janvier, Vendredi

Heure Température Précipitation Vent Pression Humidité
00:00 0°C° 0 mm 4 m/s 741 mmHg 88%
01:00 0°C° 0 mm 4 m/s 741 mmHg 88%
02:00 0°C° 0 mm 5 m/s 740 mmHg 88%
03:00 0°C° 0 mm 5 m/s 740 mmHg 88%
04:00 0°C° 0 mm 5 m/s 740 mmHg 89%
05:00 0°C° 0 mm 5 m/s 739 mmHg 88%
06:00 0°C° 0 mm 5 m/s 739 mmHg 88%
07:00 +1°C° 0 mm 6 m/s 739 mmHg 88%
08:00 +1°C° 0 mm 5 m/s 739 mmHg 89%
09:00 +1°C° 0 mm 5 m/s 738 mmHg 91%
10:00 +1°C° 0 mm 5 m/s 738 mmHg 93%
11:00 +1°C° 0 mm 5 m/s 737 mmHg 95%
12:00 +1°C° 0 mm 4 m/s 737 mmHg 96%
13:00 +1°C° 0 mm 4 m/s 736 mmHg 97%
14:00 +1°C° 0 mm 4 m/s 736 mmHg 96%
15:00 0°C° 0 mm 4 m/s 736 mmHg 95%
16:00 0°C° 0 mm 4 m/s 736 mmHg 94%
17:00 0°C° 0 mm 4 m/s 736 mmHg 93%
18:00 0°C° 0 mm 4 m/s 737 mmHg 92%
19:00 -1°C° 0 mm 4 m/s 737 mmHg 91%
20:00 0°C° 0 mm 3 m/s 737 mmHg 92%
21:00 0°C° 0 mm 3 m/s 738 mmHg 93%
22:00 0°C° 0 mm 3 m/s 738 mmHg 93%
23:00 +1°C° 0 mm 2 m/s 738 mmHg 94%

Demain, 23 Janvier, Samedi

Heure Température Précipitation Vent Pression Humidité
00:00 +1°C° 0 mm 2 m/s 739 mmHg 94%
01:00 +1°C° 0 mm 2 m/s 739 mmHg 94%
02:00 +1°C° 0 mm 1 m/s 739 mmHg 94%
03:00 +1°C° 0 mm 1 m/s 739 mmHg 94%
04:00 +1°C° 0 mm 1 m/s 739 mmHg 94%
05:00 -1°C° 0 mm 2 m/s 739 mmHg 94%
06:00 -1°C° 0 mm 2 m/s 739 mmHg 95%
07:00 -1°C° 0 mm 3 m/s 739 mmHg 95%
08:00 0°C° 0 mm 3 m/s 738 mmHg 95%
09:00 0°C° 0 mm 3 m/s 738 mmHg 95%
10:00 -1°C° 0 mm 4 m/s 738 mmHg 94%
11:00 0°C° 1.5 mm 4 m/s 737 mmHg 95%
12:00 0°C° 1.5 mm 5 m/s 736 mmHg 96%
13:00 0°C° 1.5 mm 5 m/s 736 mmHg 97%
14:00 0°C° 0.3 mm 5 m/s 735 mmHg 97%
15:00 0°C° 0.3 mm 5 m/s 734 mmHg 96%
16:00 +1°C° 0.3 mm 5 m/s 733 mmHg 96%
17:00 +1°C° 0 mm 5 m/s 733 mmHg 93%
18:00 +1°C° 0 mm 5 m/s 733 mmHg 91%
19:00 +1°C° 0 mm 5 m/s 733 mmHg 89%
20:00 +1°C° 0 mm 5 m/s 733 mmHg 90%
21:00 -1°C° 0 mm 6 m/s 733 mmHg 91%
22:00 -1°C° 0 mm 6 m/s 734 mmHg 92%
23:00 -1°C° 0 mm 6 m/s 734 mmHg 92%

Après-demain, 24 Janvier, Dimanche

Heure Température Précipitation Vent Pression Humidité
00:00 -1°C° 0 mm 6 m/s 734 mmHg 93%
01:00 -1°C° 0 mm 6 m/s 735 mmHg 94%
02:00 -2°C° 0 mm 6 m/s 735 mmHg 93%
03:00 -2°C° 0 mm 6 m/s 735 mmHg 93%
04:00 -1°C° 0 mm 5 m/s 735 mmHg 93%
05:00 -1°C° 0 mm 5 m/s 736 mmHg 94%
06:00 -1°C° 0 mm 5 m/s 736 mmHg 95%
07:00 -1°C° 0 mm 4 m/s 737 mmHg 96%
08:00 -1°C° 0 mm 4 m/s 737 mmHg 97%
09:00 -1°C° 0 mm 4 m/s 737 mmHg 97%
10:00 -1°C° 0 mm 4 m/s 738 mmHg 97%
11:00 0°C° 0 mm 3 m/s 738 mmHg 96%
12:00 0°C° 0 mm 3 m/s 738 mmHg 95%
13:00 0°C° 0 mm 3 m/s 738 mmHg 94%
14:00 0°C° 0 mm 3 m/s 738 mmHg 95%
15:00 +1°C° 0 mm 2 m/s 738 mmHg 95%
16:00 +1°C° 0 mm 2 m/s 738 mmHg 95%
17:00 -1°C° 0.1 mm 2 m/s 738 mmHg 96%
18:00 -1°C° 0.1 mm 2 m/s 738 mmHg 97%
19:00 -1°C° 0.1 mm 2 m/s 738 mmHg 97%
20:00 -1°C° 0 mm 3 m/s 738 mmHg 97%
21:00 -1°C° 0 mm 3 m/s 739 mmHg 96%
22:00 -1°C° 0 mm 3 m/s 739 mmHg 96%
23:00 -1°C° 0 mm 3 m/s 739 mmHg 95%

25 Janvier, Lundi

Heure Température Précipitation Vent Pression Humidité
00:00 -1°C° 0 mm 3 m/s 739 mmHg 94%
01:00 -1°C° 0 mm 3 m/s 739 mmHg 93%
02:00 -2°C° 0 mm 3 m/s 739 mmHg 92%
03:00 -2°C° 0 mm 3 m/s 739 mmHg 91%
04:00 -2°C° 0 mm 2 m/s 739 mmHg 91%
05:00 -2°C° 0 mm 3 m/s 740 mmHg 90%
06:00 -2°C° 0 mm 3 m/s 740 mmHg 90%
07:00 -2°C° 0 mm 3 m/s 741 mmHg 89%
08:00 -2°C° 0 mm 3 m/s 741 mmHg 89%
09:00 -2°C° 0 mm 4 m/s 741 mmHg 89%
10:00 -2°C° 0 mm 4 m/s 742 mmHg 89%
11:00 -2°C° 0 mm 4 m/s 742 mmHg 86%
12:00 -2°C° 0 mm 4 m/s 742 mmHg 84%
13:00 -2°C° 0 mm 5 m/s 743 mmHg 82%
14:00 -2°C° 0 mm 4 m/s 743 mmHg 81%
15:00 -2°C° 0 mm 4 m/s 743 mmHg 81%
16:00 -1°C° 0 mm 3 m/s 743 mmHg 80%
17:00 -1°C° 0 mm 3 m/s 744 mmHg 81%
18:00 -1°C° 0 mm 3 m/s 744 mmHg 82%
19:00 -1°C° 0 mm 3 m/s 744 mmHg 83%
20:00 -1°C° 0 mm 3 m/s 744 mmHg 84%
21:00 -2°C° 0 mm 3 m/s 744 mmHg 85%
22:00 -2°C° 0 mm 3 m/s 744 mmHg 86%
23:00 -2°C° 0 mm 3 m/s 744 mmHg 87%

26 Janvier, Mardi

Heure Température Précipitation Vent Pression Humidité
00:00 -2°C° 0 mm 3 m/s 744 mmHg 88%
01:00 -2°C° 0 mm 3 m/s 744 mmHg 89%
02:00 -2°C° 0 mm 3 m/s 744 mmHg 89%
03:00 -2°C° 0 mm 3 m/s 744 mmHg 88%
04:00 -2°C° 0 mm 4 m/s 745 mmHg 87%
05:00 -2°C° 0 mm 4 m/s 745 mmHg 87%
06:00 -2°C° 0 mm 4 m/s 745 mmHg 87%
07:00 -2°C° 0 mm 4 m/s 745 mmHg 87%
08:00 -2°C° 0 mm 4 m/s 745 mmHg 86%
09:00 -2°C° 0 mm 5 m/s 745 mmHg 86%
10:00 -2°C° 0 mm 5 m/s 746 mmHg 86%
11:00 -2°C° 0 mm 5 m/s 746 mmHg 84%
12:00 -1°C° 0 mm 5 m/s 746 mmHg 82%
13:00 -1°C° 0 mm 5 m/s 746 mmHg 80%
14:00 -1°C° 0.1 mm 5 m/s 746 mmHg 83%
15:00 -1°C° 0.1 mm 5 m/s 746 mmHg 87%
16:00 -1°C° 0.1 mm 5 m/s 746 mmHg 90%
17:00 -1°C° 0 mm 5 m/s 746 mmHg 89%
18:00 -1°C° 0 mm 5 m/s 746 mmHg 88%
19:00 -3°C° 0 mm 6 m/s 746 mmHg 87%
20:00 -3°C° 0 mm 6 m/s 747 mmHg 87%
21:00 -3°C° 0 mm 6 m/s 747 mmHg 86%
22:00 -3°C° 0 mm 6 m/s 747 mmHg 85%
23:00 -4°C° 0 mm 5 m/s 747 mmHg 86%

27 Janvier, Mercredi

Heure Température Précipitation Vent Pression Humidité
00:00 -4°C° 0 mm 5 m/s 746 mmHg 86%
01:00 -5°C° 0 mm 5 m/s 746 mmHg 86%
02:00 -5°C° 0 mm 5 m/s 746 mmHg 86%
03:00 -3°C° 0 mm 4 m/s 746 mmHg 87%
04:00 -3°C° 0 mm 4 m/s 746 mmHg 87%
05:00 -3°C° 0 mm 4 m/s 746 mmHg 89%
06:00 -3°C° 0 mm 4 m/s 746 mmHg 91%
07:00 -2°C° 0 mm 3 m/s 746 mmHg 93%
08:00 -3°C° 0 mm 4 m/s 746 mmHg 90%
09:00 -2°C° 0 mm 4 m/s 746 mmHg 88%
10:00 -2°C° 0 mm 4 m/s 746 mmHg 86%
11:00 -1°C° 0 mm 4 m/s 746 mmHg 84%
12:00 -1°C° 0 mm 4 m/s 746 mmHg 83%
13:00 -1°C° 0 mm 4 m/s 746 mmHg 81%
14:00 0°C° 0 mm 3 m/s 747 mmHg 83%
15:00 -1°C° 0 mm 3 m/s 747 mmHg 85%
16:00 -1°C° 0 mm 3 m/s 747 mmHg 87%
17:00 -1°C° 0 mm 3 m/s 747 mmHg 88%
18:00 -1°C° 0 mm 3 m/s 747 mmHg 88%
19:00 -1°C° 0 mm 3 m/s 748 mmHg 89%
20:00 -1°C° 0 mm 3 m/s 748 mmHg 89%
21:00 -1°C° 0 mm 3 m/s 748 mmHg 88%
22:00 -1°C° 0 mm 3 m/s 748 mmHg 88%
23:00 -1°C° 0 mm 3 m/s 748 mmHg 89%
Voir plus

Nous avons besoin de votre consentement

Meteoprog et ses fournisseurs de services peuvent stocker et accéder à des données personnelles telles que des cookies, des identifiants d'appareils ou d'autres technologies similaires sur votre appareil et traiter ces données pour personnaliser le contenu et les publicités, ainsi que pour fournir des fonctionnalités de médias sociaux et analyser le trafic.

  • Stocker et/ou accéder à des informations sur votre appareil

    Des cookies, des identifiants d'appareils ou d'autres informations peuvent être stockés ou accessibles sur votre appareil aux fins indiquées ci-dessus.

  • Annonces et contenus personnalisés, mesure des annonces et des contenus, connaissance de l'audience et développement de produits

    Les annonces et le contenu peuvent être personnalisés en fonction d'un profil. D'autres données peuvent être ajoutées pour mieux personnaliser les annonces et le contenu. Les performances des publicités et du contenu peuvent être mesurées. Il est possible d'obtenir des informations sur le public qui a vu les publicités et le contenu. Ces données peuvent être utilisées pour développer ou améliorer l'expérience de l'utilisateur, les systèmes et les logiciels.

En cliquant sur "J'accepte", vous autorisez l'utilisation de cookies, des identifiants d'appareils, des balises web ou d'autres technologies similaires. Vos paramètres peuvent être modifiés dans le navigateur de votre appareil.

Dans certains cas, des intérêts légitimes peuvent être invoqués plutôt qu'un consentement. Vous pouvez en savoir plus à ce sujet dans notre Politique de confidentialité et de cookies.